Voltar ao catálogo

NAVIGATOR

AtivoRádio AmadorSSO
NORAD 69888·PAYLOAD·🇺🇸 United States
Este nome de satélite ainda não foi confirmado por fontes oficiais.

Lançado Jul 7, 2026 de Vandenberg Space Force Base

Loading…

Próximas Passagens (próximas 24 horas)

TLE

AtualizadoSource: Space-Track

Época: Sep 14, 2026, 04:17 UTC

1 69888U 26156V   26257.17872861  .00001451  00000-0  15047-3 0  9992
2 69888  97.7485 156.4653 0003250 285.0817  75.0042 14.91510114 10109

Acompanhe NAVIGATOR em tempo real com AllMySat

Download on the App Store